Location: An Tulaigh
(53.1928°N, 8.1647°W)
Time: 23:38:38
(UTC+00:00)

ISS - Pass Details

Date: 15 May 2026
Orbit: 416 x 423 km, 51.6° (Epoch: 11 June)

Event Time Altitude Azimuth Distance (km) Brightness Sun altitude
Rises 22:42:02 0° 276° (W) 2,359 0.5 -14.1°
Reaches altitude 10° 22:44:10 10° 272° (W) 1,495 -0.6 -14.3°
Maximum altitude 22:47:26 52° 195° (SSW) 523 -3.6 -14.5°
Enters shadow 22:48:48 30° 133° (SE) 782 -2.9 -14.6°
